When you browse on this site, cookies collect data to enhance your experience and personalize the content and advertising you see.
Visit our Privacy Policy to learn more. By continuing to use the site, you agree to this use of cookies and data.
  • In Portugal
  • List of Countries
  • For 7 days
  • Water Temperature
  • Weather Map
  • Weather Widgets
  • user-avatar
    Login

    Hourly Weather Georgetown

    Today, 24 February, Monday

    Time Temperature Precipitation Wind Pressure Humidity
    00:00 +24°C° 0 mm 8 mps 736 mmHg 33%
    01:00 +23°C° 0 mm 8 mps 736 mmHg 34%
    02:00 +23°C° 0 mm 9 mps 736 mmHg 35%
    03:00 +22°C° 0 mm 9 mps 736 mmHg 36%
    04:00 +22°C° 0 mm 10 mps 735 mmHg 37%
    05:00 +21°C° 0 mm 10 mps 736 mmHg 37%
    06:00 +21°C° 0 mm 10 mps 736 mmHg 38%
    07:00 +19°C° 0 mm 10 mps 737 mmHg 38%
    08:00 +22°C° 0 mm 10 mps 737 mmHg 35%
    09:00 +23°C° 0 mm 10 mps 738 mmHg 32%
    10:00 +26°C° 0 mm 10 mps 738 mmHg 30%
    11:00 +27°C° 0 mm 9 mps 737 mmHg 30%
    12:00 +28°C° 0 mm 7 mps 736 mmHg 30%
    13:00 +29°C° 0 mm 6 mps 736 mmHg 30%
    14:00 +29°C° 0 mm 6 mps 735 mmHg 30%
    15:00 +30°C° 0 mm 5 mps 735 mmHg 30%
    16:00 +30°C° 0 mm 5 mps 734 mmHg 30%
    17:00 +29°C° 0 mm 5 mps 734 mmHg 30%
    18:00 +28°C° 0 mm 6 mps 735 mmHg 31%
    19:00 +27°C° 0 mm 7 mps 735 mmHg 32%
    20:00 +26°C° 0 mm 8 mps 735 mmHg 31%
    21:00 +24°C° 0 mm 9 mps 736 mmHg 30%
    22:00 +23°C° 0 mm 10 mps 736 mmHg 29%
    23:00 +22°C° 0 mm 10 mps 736 mmHg 29%

    Tomorrow, 25 February, Tuesday

    Time Temperature Precipitation Wind Pressure Humidity
    00:00 +21°C° 0 mm 11 mps 736 mmHg 29%
    01:00 +19°C° 0 mm 11 mps 736 mmHg 29%
    02:00 +19°C° 0 mm 11 mps 735 mmHg 30%
    03:00 +18°C° 0 mm 11 mps 735 mmHg 30%
    04:00 +18°C° 0 mm 11 mps 735 mmHg 31%
    05:00 +18°C° 0 mm 11 mps 736 mmHg 32%
    06:00 +17°C° 0 mm 11 mps 736 mmHg 33%
    07:00 +17°C° 0 mm 11 mps 737 mmHg 34%
    08:00 +19°C° 0 mm 11 mps 737 mmHg 32%
    09:00 +21°C° 0 mm 11 mps 737 mmHg 30%
    10:00 +23°C° 0 mm 11 mps 738 mmHg 28%
    11:00 +24°C° 0 mm 10 mps 737 mmHg 28%
    12:00 +27°C° 0 mm 9 mps 736 mmHg 27%
    13:00 +28°C° 0 mm 8 mps 735 mmHg 27%
    14:00 +28°C° 0 mm 7 mps 735 mmHg 27%
    15:00 +29°C° 0 mm 6 mps 734 mmHg 27%
    16:00 +29°C° 0 mm 5 mps 734 mmHg 27%
    17:00 +28°C° 0 mm 5 mps 734 mmHg 28%
    18:00 +27°C° 0 mm 6 mps 734 mmHg 28%
    19:00 +26°C° 0 mm 6 mps 734 mmHg 29%
    20:00 +24°C° 0 mm 7 mps 735 mmHg 29%
    21:00 +23°C° 0 mm 8 mps 735 mmHg 29%
    22:00 +22°C° 0 mm 8 mps 735 mmHg 28%
    23:00 +22°C° 0 mm 8 mps 735 mmHg 29%

    Day after tomorrow, 26 February, Wednesday

    Time Temperature Precipitation Wind Pressure Humidity
    00:00 +21°C° 0 mm 9 mps 735 mmHg 29%
    01:00 +19°C° 0 mm 9 mps 735 mmHg 30%
    02:00 +19°C° 0 mm 9 mps 735 mmHg 30%
    03:00 +19°C° 0 mm 9 mps 734 mmHg 31%
    04:00 +18°C° 0 mm 10 mps 734 mmHg 32%
    05:00 +18°C° 0 mm 9 mps 734 mmHg 33%
    06:00 +18°C° 0 mm 9 mps 734 mmHg 34%
    07:00 +18°C° 0 mm 9 mps 735 mmHg 35%
    08:00 +19°C° 0 mm 9 mps 735 mmHg 32%
    09:00 +22°C° 0 mm 8 mps 735 mmHg 29%
    10:00 +24°C° 0 mm 8 mps 736 mmHg 26%
    11:00 +26°C° 0 mm 6 mps 735 mmHg 27%
    12:00 +28°C° 0 mm 5 mps 734 mmHg 28%
    13:00 +29°C° 0 mm 3 mps 734 mmHg 29%
    14:00 +29°C° 0 mm 3 mps 733 mmHg 30%
    15:00 +29°C° 0 mm 2 mps 732 mmHg 30%
    16:00 +29°C° 0 mm 1 mps 732 mmHg 31%
    17:00 +28°C° 0 mm 2 mps 732 mmHg 34%
    18:00 +27°C° 0 mm 3 mps 732 mmHg 37%
    19:00 +25°C° 0 mm 4 mps 733 mmHg 41%
    20:00 +25°C° 0 mm 5 mps 733 mmHg 39%
    21:00 +25°C° 0 mm 5 mps 734 mmHg 36%
    22:00 +24°C° 0 mm 6 mps 734 mmHg 34%
    23:00 +24°C° 0 mm 6 mps 734 mmHg 32%

    27 February, Thursday

    Time Temperature Precipitation Wind Pressure Humidity
    00:00 +23°C° 0 mm 6 mps 734 mmHg 30%
    01:00 +23°C° 0 mm 6 mps 734 mmHg 27%
    02:00 +23°C° 0 mm 6 mps 734 mmHg 27%
    03:00 +22°C° 0 mm 7 mps 733 mmHg 27%
    04:00 +22°C° 0 mm 7 mps 733 mmHg 27%
    05:00 +22°C° 0 mm 7 mps 734 mmHg 27%
    06:00 +22°C° 0 mm 7 mps 734 mmHg 27%
    07:00 +22°C° 0 mm 7 mps 735 mmHg 27%
    08:00 +24°C° 0 mm 7 mps 735 mmHg 26%
    09:00 +27°C° 0 mm 7 mps 736 mmHg 25%
    10:00 +29°C° 0 mm 6 mps 736 mmHg 24%
    11:00 +30°C° 0 mm 5 mps 735 mmHg 25%
    12:00 +32°C° 0 mm 4 mps 734 mmHg 26%
    13:00 +33°C° 0 mm 3 mps 733 mmHg 27%
    14:00 +33°C° 0 mm 3 mps 733 mmHg 29%
    15:00 +31°C° 0 mm 2 mps 732 mmHg 30%
    16:00 +31°C° 0 mm 2 mps 732 mmHg 32%
    17:00 +30°C° 0 mm 2 mps 732 mmHg 34%
    18:00 +28°C° 0 mm 3 mps 733 mmHg 36%
    19:00 +27°C° 0 mm 4 mps 733 mmHg 38%
    20:00 +27°C° 0 mm 5 mps 734 mmHg 34%
    21:00 +27°C° 0 mm 5 mps 734 mmHg 30%
    22:00 +27°C° 0 mm 5 mps 734 mmHg 26%
    23:00 +27°C° 0 mm 6 mps 734 mmHg 26%

    28 February, Friday

    Time Temperature Precipitation Wind Pressure Humidity
    00:00 +26°C° 0 mm 6 mps 734 mmHg 26%
    01:00 +26°C° 0 mm 7 mps 734 mmHg 26%
    02:00 +26°C° 0 mm 7 mps 733 mmHg 26%
    03:00 +24°C° 0 mm 7 mps 733 mmHg 26%
    04:00 +24°C° 0 mm 7 mps 733 mmHg 26%
    05:00 +24°C° 0 mm 7 mps 734 mmHg 26%
    06:00 +24°C° 0 mm 7 mps 734 mmHg 26%
    07:00 +23°C° 0 mm 7 mps 734 mmHg 26%
    08:00 +27°C° 0 mm 7 mps 735 mmHg 25%
    09:00 +29°C° 0 mm 7 mps 735 mmHg 24%
    10:00 +32°C° 0 mm 6 mps 736 mmHg 23%
    11:00 +33°C° 0 mm 5 mps 735 mmHg 23%
    12:00 +34°C° 0 mm 4 mps 734 mmHg 24%
    13:00 +35°C° 0 mm 3 mps 733 mmHg 24%
    14:00 +35°C° 0 mm 3 mps 733 mmHg 25%
    15:00 +35°C° 0 mm 2 mps 732 mmHg 26%
    16:00 +34°C° 0 mm 1 mps 732 mmHg 27%
    17:00 +34°C° 0 mm 2 mps 732 mmHg 29%
    18:00 +31°C° 0 mm 2 mps 732 mmHg 30%
    19:00 +30°C° 0 mm 3 mps 733 mmHg 31%
    20:00 +30°C° 0 mm 4 mps 733 mmHg 29%
    21:00 +29°C° 0 mm 5 mps 733 mmHg 26%
    22:00 +29°C° 0 mm 6 mps 734 mmHg 23%
    23:00 +29°C° 0 mm 6 mps 734 mmHg 24%

    29 February, Saturday

    Time Temperature Precipitation Wind Pressure Humidity
    00:00 +28°C° 0 mm 6 mps 733 mmHg 25%
    01:00 +27°C° 0 mm 6 mps 733 mmHg 26%
    02:00 +27°C° 0 mm 6 mps 733 mmHg 26%
    03:00 +26°C° 0 mm 6 mps 733 mmHg 26%
    04:00 +26°C° 0 mm 7 mps 732 mmHg 27%
    05:00 +26°C° 0 mm 7 mps 733 mmHg 27%
    06:00 +26°C° 0 mm 7 mps 733 mmHg 27%
    07:00 +24°C° 0 mm 8 mps 733 mmHg 27%
    08:00 +27°C° 0 mm 8 mps 734 mmHg 26%
    09:00 +29°C° 0 mm 8 mps 734 mmHg 25%
    10:00 +32°C° 0 mm 8 mps 735 mmHg 25%
    11:00 +33°C° 0 mm 6 mps 734 mmHg 25%
    12:00 +34°C° 0 mm 5 mps 733 mmHg 25%
    13:00 +34°C° 0 mm 4 mps 732 mmHg 25%
    14:00 +34°C° 0 mm 3 mps 732 mmHg 26%
    15:00 +35°C° 0 mm 3 mps 731 mmHg 27%
    16:00 +35°C° 0 mm 2 mps 731 mmHg 28%
    17:00 +33°C° 0 mm 3 mps 731 mmHg 28%
    18:00 +32°C° 0 mm 4 mps 731 mmHg 28%
    19:00 +30°C° 0 mm 5 mps 732 mmHg 27%
    20:00 +30°C° 0 mm 6 mps 732 mmHg 26%
    21:00 +29°C° 0 mm 7 mps 733 mmHg 25%
    22:00 +28°C° 0 mm 8 mps 733 mmHg 24%
    23:00 +28°C° 0 mm 8 mps 733 mmHg 25%
    Show more